Location: Fort Wayne
(41.1310°N, 85.1290°W)
Time: 19:49:04
(UTC-04:00)

Cosmos 1000 Rocket - Visible Passes

Search period start: 29 September 2016 00:00
Search period end: 09 October 2016 00:00
Orbit: 954 x 992 km, 82.9° (Epoch: 29 September)

Date Brightness Start Highest point End Pass type
(mag) Time Alt. Az. Time Alt. Az. Time Alt. Az.
29 Sep 6.1 04:45:15 10° SSE 04:50:42 31° E 04:56:08 10° NNE visible
29 Sep 5.0 06:29:57 10° SW 06:35:49 40° WNW 06:41:45 10° N visible
30 Sep 5.1 05:09:00 10° SSE 05:15:09 56° E 05:21:18 10° NNE visible
30 Sep 5.6 06:55:59 10° WSW 07:00:51 23° WNW 07:05:44 10° NNW visible
01 Oct 7.1 03:52:15 10° ESE 03:55:20 14° E 03:58:26 10° NE visible
01 Oct 4.4 05:34:54 18° S 05:39:46 84° W 05:46:07 10° N visible
02 Oct 6.3 04:16:06 16° SE 04:19:34 26° E 04:24:37 10° NNE visible
02 Oct 4.7 06:00:48 23° SW 06:04:33 48° WNW 06:10:38 10° N visible
03 Oct 5.4 04:41:48 34° SE 04:43:59 46° E 04:49:58 10° NNE visible
03 Oct 5.4 06:26:29 19° WSW 06:29:30 27° WNW 06:34:48 10° NNW visible
04 Oct 7.1 03:22:39 10° E 03:24:18 11° ENE 03:25:59 10° ENE visible
04 Oct 4.5 05:07:19 60° S 05:08:33 82° E 05:14:53 10° N visible
04 Oct 6.0 06:52:00 12° W 06:54:39 16° WNW 06:58:17 10° NNW visible
05 Oct 6.5 03:48:04 21° E 03:48:29 21° E 03:53:02 10° NE visible
05 Oct 4.5 05:32:45 56° W 05:33:16 58° W 05:39:29 10° N visible
06 Oct 5.7 04:13:24 37° ENE 04:13:24 37° ENE 04:18:34 10° NNE visible
06 Oct 5.1 05:58:04 33° WNW 05:58:10 33° WNW 06:03:47 10° N visible
07 Oct 5.1 04:38:38 54° NE 04:38:38 54° NE 04:43:36 10° NNE visible
07 Oct 5.8 06:23:18 19° WNW 06:23:18 19° WNW 06:27:34 10° NNW visible
08 Oct 6.9 03:19:09 16° ENE 03:19:09 16° ENE 03:21:19 10° NE visible
08 Oct 5.0 05:03:49 48° NNW 05:03:49 48° NNW 05:08:18 10° N visible
08 Oct 6.3 06:48:28 10° WNW 06:48:32 10° WNW 06:48:50 10° WNW visible
